Home > Weather > French Lick > Past weeks

Flag for USA Weather for the Past 2 Weeks in French Lick, Indiana, USA

Now
66 °F

Scattered clouds.


Feels Like: 66 °F
Forecast: 57 / 69 °F
Wind: 6 mph from Southeast

Location: Huntingburg Airport

Current Time: Apr 30, 2016 at 7:09:26 PM

Latest Report: Apr 30, 2016 at 6:35 PM


Visibility: 10 mi

Pressure: 29.85 "Hg

Humidity: 88%

Dew Point: 63 °F

Location of French LickLocation

Historic Weather in French Lick — Graph

°F

French Lick Temperature Yesterday

Maximum temperature yesterday: 66 °F (at 1:35 PM)
Minimum temperature yesterday: 52 °F (at 6:15 AM)
Average temperature yesterday: 61 °F

High & Low Weather Summary for the Past Weeks

 TemperatureHumidityPressure
High82 °F (Apr 18, 3:55 PM)94% (Apr 21, 1:15 PM)30.38 "Hg (Apr 21, 1:15 PM)
Low45 °F (Apr 24, 5:55 AM)23% (Apr 17, 4:35 PM)29.71 "Hg (Apr 26, 6:55 PM)
Average65 °F66%30.03 "Hg
* Reported Apr 15 5:15 PM — Apr 30 5:35 PM, French Lick, Weather by CustomWeather, © 2016

Note: Actual official high and low records may vary slightly from our data, if they occured in-between our weather recording intervals... More about our weather records

Advertising

French Lick Weather History for the Previous 24 Hours

Scroll right to see more
 ConditionsComfort  
Time TempWeatherWind HumidityBarometerVisibility
5:35 PM
Sat, Apr 30
64 °FMore clouds than sun.10 mph88%29.86 "Hg10 mi
4:55 PM64 °FCloudy.9 mph88%29.86 "Hg10 mi
4:35 PM64 °FOvercast.7 mph88%29.86 "Hg10 mi
4:15 PM64 °FOvercast.8 mph88%29.87 "Hg10 mi
3:55 PM64 °FMostly cloudy.7 mph88%29.87 "Hg10 mi
3:35 PM64 °FMostly cloudy.7 mph88%29.88 "Hg10 mi
3:15 PM64 °FLow clouds.6 mph88%29.88 "Hg10 mi
2:55 PM63 °FLow clouds.6 mph94%29.87 "Hg10 mi
2:35 PM63 °FLow clouds.8 mph88%29.89 "Hg10 mi
2:15 PM63 °FLow clouds.6 mph88%29.89 "Hg10 mi
1:55 PM63 °FLow clouds.13 mph83%29.88 "Hg10 mi
1:35 PM63 °FLow clouds.9 mph88%29.89 "Hg10 mi
1:15 PM63 °FMostly cloudy.9 mph88%29.89 "Hg10 mi
12:55 PM61 °FCloudy.13 mph88%29.89 "Hg10 mi
12:35 PM61 °FPartly sunny.12 mph88%29.91 "Hg10 mi
12:15 PM61 °FMostly cloudy.9 mph83%29.91 "Hg10 mi
11:55 AM59 °FMostly cloudy.9 mph88%29.92 "Hg9 mi
11:35 AM59 °FMostly cloudy.10 mph88%29.92 "Hg10 mi
11:15 AM59 °FBroken clouds.13 mph88%29.91 "Hg9 mi
10:55 AM59 °FMore clouds than sun.9 mph88%29.91 "Hg10 mi
10:35 AM59 °FBroken clouds.10 mph88%29.92 "Hg10 mi
10:15 AM59 °FMostly cloudy.9 mph88%29.93 "Hg10 mi
9:55 AM57 °FMostly cloudy.7 mph88%29.93 "Hg9 mi
9:35 AM57 °FMostly cloudy.6 mph88%29.95 "Hg4 mi
9:15 AM57 °FMostly cloudy.8 mph88%29.95 "Hg6 mi
8:55 AM57 °FCloudy.8 mph88%29.95 "Hg10 mi
8:35 AM57 °FMore clouds than sun.6 mph88%29.96 "Hg9 mi
8:15 AM57 °FBroken clouds.6 mph82%29.96 "Hg10 mi
7:55 AM59 °FOvercast.5 mph77%29.95 "Hg6 mi
7:35 AM61 °FOvercast.6 mph72%29.92 "Hg10 mi
7:15 AM61 °FOvercast.9 mph72%29.90 "Hg10 mi
6:55 AM61 °FPassing clouds.10 mph72%29.90 "Hg10 mi
6:35 AM61 °FPartly cloudy.12 mph68%29.91 "Hg10 mi
5:55 AM61 °FOvercast.7 mph72%29.93 "Hg10 mi
5:35 AM61 °FOvercast.8 mph72%29.94 "Hg10 mi
5:15 AM61 °FOvercast.9 mph72%29.94 "Hg10 mi
4:35 AM61 °FMostly cloudy.10 mph72%29.93 "Hg10 mi
4:15 AM61 °FMostly cloudy.10 mph72%29.92 "Hg10 mi
3:55 AM61 °FMostly cloudy.12 mph72%29.93 "Hg10 mi
3:15 AM61 °FOvercast.9 mph72%29.94 "Hg10 mi
2:35 AM61 °FOvercast.10 mph72%29.95 "Hg10 mi
1:55 AM61 °FOvercast.7 mph72%29.96 "Hg10 mi
1:15 AM61 °FMostly cloudy.8 mph72%29.99 "Hg10 mi
12:55 AM61 °FMostly cloudy.8 mph72%29.98 "Hg10 mi
12:35 AM61 °FMostly cloudy.6 mph72%29.99 "Hg10 mi
11:55 PM
Fri, Apr 29
63 °FMostly cloudy.7 mph68%30.00 "Hg10 mi
11:35 PM63 °FMostly cloudy.8 mph68%29.99 "Hg10 mi
11:15 PM63 °FOvercast.8 mph68%30.00 "Hg10 mi
10:35 PM63 °FOvercast.7 mph68%30.01 "Hg10 mi
10:15 PM63 °FOvercast.6 mph68%30.02 "Hg10 mi
9:55 PM61 °FOvercast.10 mph77%30.02 "Hg10 mi
9:15 PM63 °FOvercast.6 mph73%30.02 "Hg10 mi
8:55 PM63 °FOvercast.6 mph73%30.01 "Hg10 mi
8:35 PM63 °FOvercast.6 mph73%30.01 "Hg10 mi
7:55 PM63 °FOvercast.5 mph73%30.01 "Hg10 mi
7:35 PM64 °FOvercast.5 mph68%30.01 "Hg10 mi
7:15 PM64 °FOvercast.No wind68%30.01 "Hg10 mi
Weather by CustomWeather, © 2016

See weather overviewHow to use our weather pages